Location: B?ogocice
(50.2413°N, 20.2361°E)
Time: 15:03:24
(UTC+00:00)

SAR-Lupe-4 - Pass Details

Date: 14 September 2024
Orbit: 476 x 483 km, 98.1° (Epoch: 03 October)

Event Time Altitude Azimuth Distance (km) Brightness Sun altitude
Rises 01:29:00 0° 26° (NNE) 2,557 8.3 -24.7°
Reaches altitude 10° 01:31:26 10° 42° (NE) 1,670 7.3 -24.4°
Maximum altitude 01:34:15 21° 94° (E) 1,117 5.8 -24.1°
Enters shadow 01:35:48 17° 129° (SE) 1,306 5.8 -23.9°
